Juneau, WI

9:19 PM CST on December 11, 2019 (GMT -0600)
Dodge County

Weather History for KUNU - October, 2019

Change the Weather History Date:

Wednesday, October 9, 2019

  Actual Average Record
Temperature  
Mean Temperature 56 °F -  
Max Temperature 68 °F 61 °F 80 °F (2010)
Min Temperature 45 °F 42 °F 28 °F (1972)
Degree Days  
Heating Degree Days 8    
Growing Degree Days 6 (Base 50)    
Moisture  
Dew Point 45 °F    
Average Humidity 68    
Maximum Humidity 92    
Minimum Humidity 39    
Precipitation  
Precipitation 0.00 in - - ()
Sea Level Pressure  
Sea Level Pressure 30.13 in    
Wind  
Wind Speed 4 mph ()    
Max Wind Speed 14 mph    
Max Gust Speed 24 mph    
Visibility 10.0 miles    
Events      
Averages and records for this station are not official NWS values.
T = Trace of Precipitation, MM = Missing Value Source: Averaged Metar Reports

Daily Weather History Graph

Daily Weather History Graph

Search for Another Location

Airport or City:

Astronomy

Oct. 09, 2019 Rise Set
Actual Time 7:01 AM CDT 6:22 PM CDT
Civil Twilight 6:32 AM CDT 6:50 PM CDT
Nautical Twilight 5:59 AM CDT 7:23 PM CDT
Astronomical Twilight 5:26 AM CDT 7:56 PM CDT
Moon 5:02 PM CDT (10/9) 2:37 AM CDT (10/9)
Length of Visible Light 12h 17m
Length of Day
11h 20m
Waxing Gibbous, 85% of the Moon is Illuminated
Oct 9
Waxing Gibbous
Oct 13
Full
Oct 21
Last Quarter
Oct 27
New
Nov 4
First Quarter

Hourly Weather History & Observations

Time (CDT) Temp. Dew Point Humidity Pressure Visibility Wind Dir Wind Speed Gust Speed Precip Events Conditions
12:15 AM 49.6 °F 43.7 °F 80% 30.13 in 10.0 mi SE 5.8 mph - N/A   Clear
12:55 AM 49.1 °F 43.9 °F 82% 30.13 in 10.0 mi SE 4.6 mph - N/A   Clear
1:15 AM 49.1 °F 44.1 °F 83% 30.13 in 10.0 mi SE 4.6 mph - N/A   Clear
1:35 AM 48.0 °F 43.9 °F 86% 30.13 in 10.0 mi SE 4.6 mph - N/A   Clear
1:55 AM 48.2 °F 44.2 °F 86% 30.13 in 10.0 mi SE 5.8 mph - N/A   Clear
2:15 AM 48.6 °F 44.6 °F 86% 30.13 in 10.0 mi SE 4.6 mph - N/A   Clear
2:35 AM 47.3 °F 44.2 °F 89% 30.13 in 10.0 mi SE 3.5 mph - N/A   Clear
2:55 AM 48.9 °F 45.1 °F 87% 30.13 in 10.0 mi SE 3.5 mph - N/A   Clear
3:15 AM 47.1 °F 44.6 °F 91% 30.13 in 10.0 mi SE 4.6 mph - N/A   Clear
3:35 AM 46.8 °F 44.4 °F 92% 30.13 in 10.0 mi Calm Calm - N/A   Clear
3:55 AM 47.3 °F 44.6 °F 90% 30.14 in 10.0 mi Calm Calm - N/A   Clear
4:15 AM 46.4 °F 44.1 °F 92% 30.14 in 10.0 mi Calm Calm - N/A   Clear
4:35 AM 46.9 °F 44.2 °F 90% 30.15 in 10.0 mi Calm Calm - N/A   Clear
4:55 AM 46.4 °F 43.9 °F 91% 30.15 in 10.0 mi Calm Calm - N/A   Clear
5:15 AM 46.2 °F 43.7 °F 91% 30.15 in 10.0 mi Calm Calm - N/A   Clear
5:35 AM 46.6 °F 43.7 °F 90% 30.15 in 10.0 mi ESE 4.6 mph - N/A   Clear
5:55 AM 47.5 °F 43.9 °F 87% 30.15 in 10.0 mi Calm Calm - N/A   Clear
6:55 AM 46.0 °F 42.8 °F 88% 30.16 in 10.0 mi Calm Calm - N/A   Clear
7:15 AM 45.1 °F 42.3 °F 90% 30.16 in 10.0 mi Calm Calm - N/A   Clear
7:35 AM 45.1 °F 42.4 °F 90% 30.17 in 10.0 mi Calm Calm - N/A   Clear
7:55 AM 48.0 °F 43.5 °F 84% 30.17 in 10.0 mi Calm Calm - N/A   Clear
8:15 AM 49.3 °F 44.4 °F 83% 30.17 in 10.0 mi Calm Calm - N/A   Clear
8:35 AM 51.3 °F 45.5 °F 81% 30.17 in 10.0 mi Calm Calm - N/A   Clear
8:55 AM 52.7 °F 45.7 °F 77% 30.17 in 10.0 mi SE 3.5 mph - N/A   Clear
9:15 AM 54.7 °F 46.2 °F 73% 30.17 in 10.0 mi SE 4.6 mph - N/A   Clear
9:35 AM 56.7 °F 46.6 °F 69% 30.17 in 10.0 mi SE 3.5 mph - N/A   Clear
9:55 AM 59.0 °F 47.3 °F 65% 30.17 in 10.0 mi SE 3.5 mph - N/A   Clear
10:15 AM 60.6 °F 46.9 °F 61% 30.17 in 10.0 mi SE 4.6 mph - N/A   Clear
10:35 AM 62.1 °F 46.8 °F 57% 30.17 in 10.0 mi SE 6.9 mph - N/A   Clear
10:55 AM 63.5 °F 47.1 °F 55% 30.17 in 10.0 mi SE 6.9 mph - N/A   Clear
11:15 AM 64.6 °F 46.0 °F 51% 30.17 in 10.0 mi SE 9.2 mph - N/A   Clear
11:35 AM 65.7 °F 45.1 °F 47% 30.16 in 10.0 mi SSE 11.5 mph - N/A   Clear
11:55 AM 66.4 °F 45.1 °F 46% 30.15 in 10.0 mi SE 10.4 mph - N/A   Clear
12:15 PM 67.1 °F 43.5 °F 42% 30.15 in 10.0 mi ESE 11.5 mph 20.7 mph N/A   Clear
12:35 PM 68.2 °F 43.7 °F 41% 30.15 in 10.0 mi SE 12.7 mph 18.4 mph N/A   Clear
12:55 PM 68.2 °F 43.0 °F 40% 30.14 in 10.0 mi SSE 9.2 mph 24.2 mph N/A   Clear
1:15 PM 68.2 °F 43.2 °F 40% 30.13 in 10.0 mi SSE 13.8 mph 21.9 mph N/A   Clear
1:35 PM 68.7 °F 43.9 °F 41% 30.12 in 10.0 mi SE 11.5 mph 20.7 mph N/A   Clear
1:55 PM 68.4 °F 42.6 °F 39% 30.11 in 10.0 mi SE 8.1 mph 20.7 mph N/A   Clear
2:15 PM 68.5 °F 43.3 °F 40% 30.10 in 10.0 mi SE 13.8 mph 17.3 mph N/A   Clear
2:35 PM 68.7 °F 43.5 °F 40% 30.10 in 10.0 mi SSE 11.5 mph 16.1 mph N/A   Clear
2:55 PM 68.5 °F 43.9 °F 41% 30.09 in 10.0 mi SE 9.2 mph 19.6 mph N/A   Clear
3:15 PM 68.4 °F 43.7 °F 41% 30.09 in 10.0 mi SE 8.1 mph 19.6 mph N/A   Clear
3:35 PM 68.5 °F 43.2 °F 40% 30.09 in 10.0 mi SSE 11.5 mph 16.1 mph N/A   Clear
3:55 PM 68.0 °F 43.7 °F 41% 30.08 in 10.0 mi SE 11.5 mph - N/A   Clear
4:15 PM 67.1 °F 43.7 °F 43% 30.08 in 10.0 mi SE 11.5 mph - N/A   Clear
4:35 PM 65.5 °F 43.9 °F 46% 30.08 in 10.0 mi SE 4.6 mph - N/A   Clear
4:55 PM 64.8 °F 45.1 °F 49% 30.08 in 10.0 mi SE 4.6 mph - N/A   Clear
5:15 PM 63.5 °F 46.0 °F 53% 30.09 in 10.0 mi Calm Calm - N/A   Clear
5:35 PM 63.0 °F 45.1 °F 52% 30.10 in 10.0 mi SE 4.6 mph - N/A   Clear
5:55 PM 61.0 °F 45.3 °F 56% 30.10 in 10.0 mi SE 3.5 mph - N/A   Clear
6:35 PM 58.1 °F 44.6 °F 61% 30.10 in 10.0 mi Calm Calm - N/A   Clear
6:55 PM 57.6 °F 44.4 °F 62% 30.10 in 10.0 mi ESE 3.5 mph - N/A   Clear
7:15 PM 57.2 °F 44.8 °F 63% 30.10 in 10.0 mi East 3.5 mph - N/A   Clear
7:35 PM 56.3 °F 44.8 °F 65% 30.11 in 10.0 mi Calm Calm - N/A   Clear
7:55 PM 55.9 °F 45.5 °F 68% 30.11 in 10.0 mi East 3.5 mph - N/A   Clear
8:35 PM 54.7 °F 45.7 °F 72% 30.11 in 10.0 mi Calm Calm - N/A   Clear
8:55 PM 54.5 °F 45.9 °F 73% 30.12 in 10.0 mi Calm Calm - N/A   Clear
9:15 PM 54.0 °F 45.9 °F 74% 30.12 in 10.0 mi Calm Calm - N/A   Clear
9:55 PM 54.0 °F 46.4 °F 76% 30.12 in 10.0 mi Calm Calm - N/A   Clear
10:15 PM 53.6 °F 46.6 °F 77% 30.12 in 10.0 mi ESE 3.5 mph - N/A   Clear
10:55 PM 53.6 °F 47.3 °F 79% 30.11 in 10.0 mi East 4.6 mph - N/A   Clear
11:15 PM 54.0 °F 47.5 °F 79% 30.10 in 10.0 mi East 5.8 mph - N/A   Clear
11:35 PM 54.5 °F 47.8 °F 78% 30.08 in 10.0 mi East 6.9 mph - N/A   Clear
11:55 PM 54.9 °F 48.4 °F 79% 30.10 in 10.0 mi Calm Calm - N/A   Clear